Satellite: HRBE Catalog number: 37855 Epoch time: 14254.77134848 Element set: 907 Inclination: 101.7104 deg RA of node: 327.1427 deg Eccentricity: 0.0214001 Arg of perigee: 164.4196 deg Mean anomaly: 196.3732 deg Mean motion: 14.90922336 rev/day Decay rate: 1.1523e-04 rev/day^2 Epoch rev: 15557 Checksum: 293
Satellite: RS-39 Catalog number: 38051 Epoch time: 14254.81619330 Element set: 902 Inclination: 051.6207 deg RA of node: 142.5961 deg Eccentricity: 0.0007986 Arg of perigee: 187.9875 deg Mean anomaly: 288.2352 deg Mean motion: 15.76688774 rev/day Decay rate: 2.22278e-03 rev/day^2 Epoch rev: 14769 Checksum: 357
Satellite: E-STAR Catalog number: 38079 Epoch time: 14254.76981350 Element set: 964 Inclination: 069.4475 deg RA of node: 121.2909 deg Eccentricity: 0.0327354 Arg of perigee: 229.0950 deg Mean anomaly: 257.6261 deg Mean motion: 15.20637456 rev/day Decay rate: 1.02138e-03 rev/day^2 Epoch rev: 13657 Checksum: 323
Satellite: GOLIAT Catalog number: 38085 Epoch time: 14254.76985467 Element set: 344 Inclination: 069.4519 deg RA of node: 130.5954 deg Eccentricity: 0.0354829 Arg of perigee: 233.5544 deg Mean anomaly: 123.2432 deg Mean motion: 15.13653245 rev/day Decay rate: 8.6054e-04 rev/day^2 Epoch rev: 13632 Checksum: 318
Satellite: HORYU-2 Catalog number: 38340 Epoch time: 14254.44806369 Element set: 960 Inclination: 098.2686 deg RA of node: 213.1563 deg Eccentricity: 0.0011296 Arg of perigee: 262.8704 deg Mean anomaly: 097.1228 deg Mean motion: 14.72754020 rev/day Decay rate: 1.887e-05 rev/day^2 Epoch rev: 12449 Checksum: 313
Satellite: RS-40 Catalog number: 38735 Epoch time: 14254.68101198 Element set: 672 Inclination: 082.4717 deg RA of node: 233.6035 deg Eccentricity: 0.0018340 Arg of perigee: 067.3884 deg Mean anomaly: 292.9135 deg Mean motion: 12.42561191 rev/day Decay rate: 2.4e-07 rev/day^2 Epoch rev: 9632 Checksum: 298
Satellite: PROITERES Catalog number: 38756 Epoch time: 14254.68285934 Element set: 196 Inclination: 098.2255 deg RA of node: 344.3896 deg Eccentricity: 0.0014026 Arg of perigee: 105.6634 deg Mean anomaly: 254.6047 deg Mean motion: 14.75075665 rev/day Decay rate: 7.98e-06 rev/day^2 Epoch rev: 10793 Checksum: 339
Satellite: BEESAT-3 Catalog number: 39134 Epoch time: 14254.53130337 Element set: 697 Inclination: 064.8651 deg RA of node: 225.1014 deg Eccentricity: 0.0033663 Arg of perigee: 292.7428 deg Mean anomaly: 067.0137 deg Mean motion: 15.06072308 rev/day Decay rate: 7.613e-05 rev/day^2 Epoch rev: 7666 Checksum: 293
Satellite: BEESAT-2 Catalog number: 39136 Epoch time: 14254.89880418 Element set: 680 Inclination: 064.8658 deg RA of node: 224.6961 deg Eccentricity: 0.0033802 Arg of perigee: 292.3357 deg Mean anomaly: 067.4303 deg Mean motion: 15.05361772 rev/day Decay rate: 6.610e-05 rev/day^2 Epoch rev: 7670 Checksum: 316
Satellite: LO-75 Catalog number: 39382 Epoch time: 14254.38720819 Element set: 398 Inclination: 040.4910 deg RA of node: 290.4352 deg Eccentricity: 0.0020641 Arg of perigee: 139.7308 deg Mean anomaly: 220.4992 deg Mean motion: 15.58793486 rev/day Decay rate: 1.66340e-03 rev/day^2 Epoch rev: 4543 Checksum: 325
Satellite: ZACUBE-1 Catalog number: 39417 Epoch time: 14254.13838659 Element set: 398 Inclination: 097.7656 deg RA of node: 321.7823 deg Eccentricity: 0.0061637 Arg of perigee: 325.4203 deg Mean anomaly: 034.3026 deg Mean motion: 14.78317019 rev/day Decay rate: 1.167e-05 rev/day^2 Epoch rev: 4339 Checksum: 314
Satellite: TRITON-1 Catalog number: 39427 Epoch time: 14254.21731636 Element set: 250 Inclination: 097.7557 deg RA of node: 315.9261 deg Eccentricity: 0.0118016 Arg of perigee: 337.2677 deg Mean anomaly: 022.3357 deg Mean motion: 14.65569376 rev/day Decay rate: 9.58e-06 rev/day^2 Epoch rev: 4299 Checksum: 327
Satellite: DELFIN3XT Catalog number: 39428 Epoch time: 14253.78188228 Element set: 254 Inclination: 097.7529 deg RA of node: 314.4871 deg Eccentricity: 0.0127773 Arg of perigee: 341.4092 deg Mean anomaly: 018.2467 deg Mean motion: 14.63582495 rev/day Decay rate: 1.522e-05 rev/day^2 Epoch rev: 4285 Checksum: 328
Satellite: GOMX-1 Catalog number: 39430 Epoch time: 14254.70581194 Element set: 798 Inclination: 097.7471 deg RA of node: 312.4724 deg Eccentricity: 0.0156227 Arg of perigee: 346.4349 deg Mean anomaly: 013.2687 deg Mean motion: 14.57005324 rev/day Decay rate: 1.026e-05 rev/day^2 Epoch rev: 4281 Checksum: 300
Satellite: MO-76 Catalog number: 39436 Epoch time: 14254.74611160 Element set: 323 Inclination: 097.7729 deg RA of node: 327.0905 deg Eccentricity: 0.0024080 Arg of perigee: 324.9863 deg Mean anomaly: 034.9809 deg Mean motion: 14.91748813 rev/day Decay rate: 1.3043e-04 rev/day^2 Epoch rev: 4377 Checksum: 323
Satellite: LO-74 Catalog number: 39440 Epoch time: 14253.91850397 Element set: 250 Inclination: 097.7629 deg RA of node: 319.2227 deg Eccentricity: 0.0083971 Arg of perigee: 329.9262 deg Mean anomaly: 029.7140 deg Mean motion: 14.73250114 rev/day Decay rate: 1.101e-05 rev/day^2 Epoch rev: 4320 Checksum: 294
Satellite: PUCPSAT-1 Catalog number: 39442 Epoch time: 14253.93991138 Element set: 249 Inclination: 097.7748 deg RA of node: 325.2455 deg Eccentricity: 0.0034187 Arg of perigee: 326.0889 deg Mean anomaly: 033.8141 deg Mean motion: 14.86398062 rev/day Decay rate: 2.111e-05 rev/day^2 Epoch rev: 4236 Checksum: 319
Satellite: SHINAISAT Catalog number: 39572 Epoch time: 14254.53363852 Element set: 281 Inclination: 065.0025 deg RA of node: 101.5076 deg Eccentricity: 0.0020856 Arg of perigee: 276.2729 deg Mean anomaly: 083.6055 deg Mean motion: 15.78147431 rev/day Decay rate: 8.4806e-04 rev/day^2 Epoch rev: 3069 Checksum: 301
Satellite: TEIKYOSAT Catalog number: 39576 Epoch time: 14254.53425940 Element set: 294 Inclination: 065.0005 deg RA of node: 097.9135 deg Eccentricity: 0.0021080 Arg of perigee: 281.2561 deg Mean anomaly: 078.6231 deg Mean motion: 15.86164545 rev/day Decay rate: 1.47659e-03 rev/day^2 Epoch rev: 3076 Checksum: 305
Satellite: CO-77 Catalog number: 39577 Epoch time: 14244.78324653 Element set: 379 Inclination: 064.9920 deg RA of node: 123.7668 deg Eccentricity: 0.0014904 Arg of perigee: 269.7208 deg Mean anomaly: 091.1897 deg Mean motion: 16.43552757 rev/day Decay rate: 1.0543803e-01 rev/day^2 Epoch rev: 2938 Checksum: 363
Satellite: SPROUT Catalog number: 39770 Epoch time: 14254.85490731 Element set: 124 Inclination: 097.8727 deg RA of node: 350.6877 deg Eccentricity: 0.0010916 Arg of perigee: 038.3464 deg Mean anomaly: 321.8489 deg Mean motion: 14.82751146 rev/day Decay rate: 1.464e-05 rev/day^2 Epoch rev: 1638 Checksum: 322
Satellite: POPSAT-HIP1 Catalog number: 40028 Epoch time: 14254.86185322 Element set: 246 Inclination: 097.9762 deg RA of node: 149.6674 deg Eccentricity: 0.0015778 Arg of perigee: 018.5397 deg Mean anomaly: 341.6394 deg Mean motion: 14.85253969 rev/day Decay rate: 1.922e-05 rev/day^2 Epoch rev: 1244 Checksum: 332
Satellite: EO-80 Catalog number: 40032 Epoch time: 14254.67263837 Element set: 237 Inclination: 097.9740 deg RA of node: 149.4070 deg Eccentricity: 0.0013710 Arg of perigee: 013.7424 deg Mean anomaly: 346.4221 deg Mean motion: 14.85025082 rev/day Decay rate: 1.858e-05 rev/day^2 Epoch rev: 1242 Checksum: 278
Satellite: VELOX-1 Catalog number: 40057 Epoch time: 14254.87538503 Element set: 230 Inclination: 098.2463 deg RA of node: 323.3185 deg Eccentricity: 0.0013107 Arg of perigee: 052.4903 deg Mean anomaly: 307.7485 deg Mean motion: 14.74131860 rev/day Decay rate: 1.810e-05 rev/day^2 Epoch rev: 1085 Checksum: 271
Satellite: DAURIA DX 1 Catalog number: 40071 Epoch time: 14254.85612163 Element set: 201 Inclination: 098.3961 deg RA of node: 309.3971 deg Eccentricity: 0.0010259 Arg of perigee: 056.4787 deg Mean anomaly: 303.7399 deg Mean motion: 14.79578727 rev/day Decay rate: 8.71e-06 rev/day^2 Epoch rev: 962 Checksum: 319
Satellite: UKUBE-1 Catalog number: 40074 Epoch time: 14254.88472087 Element set: 203 Inclination: 098.3967 deg RA of node: 309.5283 deg Eccentricity: 0.0006600 Arg of perigee: 066.3004 deg Mean anomaly: 293.8904 deg Mean motion: 14.80513797 rev/day Decay rate: 1.816e-05 rev/day^2 Epoch rev: 963 Checksum: 307
Satellite: CHASQUI-1 Catalog number: 40117 Epoch time: 14254.73139321 Element set: 84 Inclination: 051.6480 deg RA of node: 030.4634 deg Eccentricity: 0.0003549 Arg of perigee: 101.6224 deg Mean anomaly: 038.4498 deg Mean motion: 15.52365765 rev/day Decay rate: 5.9005e-04 rev/day^2 Epoch rev: 372 Checksum: 272
/EX
participants (1)
-
Ray Hoad